| time (UTC) | temp F | wind direction | speed knots | gust knots | rain 1hr in | rain 24hr in | rain mn in | humidity % | barometer mb |
| 20260506060328 | 57 | 229 | 2.6 | 4.3 | 0.00 | 0.00 | 0.00 | 85 | 1017.5 |
| 20260506050337 | 58 | 219 | 3.5 | 4.3 | 0.00 | 0.00 | 0.00 | 83 | 1017.2 |
| 20260506044823 | 59 | 235 | 3.5 | 6.1 | 0.00 | 0.00 | 0.00 | 82 | 1017.1 |
| 20260506043326 | 60 | 277 | 1.7 | 3.5 | 0.00 | 0.00 | 0.00 | 82 | 1017.0 |
| 20260506041834 | 60 | 16 | 0.9 | 1.7 | 0.00 | 0.00 | 0.00 | 80 | 1016.8 |
| 20260506040320 | 61 | 17 | 1.7 | 3.5 | 0.00 | 0.00 | 0.00 | 79 | 1016.5 |
| 20260506034827 | 61 | 22 | 0.9 | 2.6 | 0.00 | 0.00 | 0.00 | 79 | 1016.4 |
| 20260506033333 | 62 | 24 | 1.7 | 2.6 | 0.00 | 0.00 | 0.00 | 78 | 1016.3 |
| 20260506031841 | 62 | 24 | 2.6 | 2.6 | 0.00 | 0.00 | 0.00 | 78 | 1016.2 |
| 20260506030329 | 62 | 27 | 1.7 | 2.6 | 0.00 | 0.00 | 0.00 | 77 | 1015.9 |
| 20260506024835 | 63 | 29 | 1.7 | 5.2 | 0.00 | 0.00 | 0.00 | 77 | 1015.8 |
| 20260506023322 | 63 | 14 | 0.9 | 2.6 | 0.00 | 0.00 | 0.00 | 76 | 1015.8 |
| 20260506021830 | 63 | 344 | 1.7 | 3.5 | 0.00 | 0.00 | 0.00 | 75 | 1015.8 |
| 20260506020334 | 64 | 338 | 0.9 | 5.2 | 0.00 | 0.00 | 0.00 | 75 | 1015.9 |
| 20260506014823 | 64 | 3 | 1.7 | 3.5 | 0.00 | 0.00 | 0.00 | 75 | 1015.9 |
| 20260506013331 | 64 | 331 | 2.6 | 6.1 | 0.00 | 0.00 | 0.00 | 74 | 1015.8 |
| 20260506011835 | 64 | 348 | 1.7 | 6.1 | 0.00 | 0.00 | 0.00 | 73 | 1015.8 |
| 20260506010323 | 64 | 352 | 3.5 | 7.0 | 0.00 | 0.00 | 0.00 | 73 | 1015.7 |
| 20260506004827 | 64 | 22 | 2.6 | 6.1 | 0.00 | 0.00 | 0.00 | 73 | 1015.8 |
| 20260506003358 | 65 | 48 | 3.5 | 7.0 | 0.00 | 0.00 | 0.00 | 71 | 1015.8 |
| 20260506001822 | 65 | 3 | 1.7 | 6.1 | 0.00 | 0.00 | 0.00 | 72 | 1015.7 |
| 20260506000331 | 65 | 350 | 2.6 | 7.0 | 0.00 | 0.00 | 0.00 | 71 | 1015.8 |
| 20260505234817 | 65 | 357 | 1.7 | 6.1 | 0.00 | 0.00 | 0.00 | 74 | 1016.1 |
| 20260505233322 | 65 | 339 | 2.6 | 6.1 | 0.00 | 0.00 | 0.00 | 71 | 1016.2 |
| 20260505231822 | 65 | 23 | 2.6 | 7.0 | 0.00 | 0.00 | 0.00 | 73 | 1016.3 |
| 20260505230326 | 65 | 18 | 1.7 | 4.3 | 0.00 | 0.00 | 0.00 | 73 | 1016.3 |
| 20260505224830 | 65 | 347 | 2.6 | 7.0 | 0.00 | 0.00 | 0.00 | 75 | 1016.5 |
| 20260505223335 | 63 | 358 | 1.7 | 7.0 | 0.00 | 0.00 | 0.00 | 77 | 1016.6 |
| 20260505221838 | 63 | 352 | 2.6 | 5.2 | 0.00 | 0.00 | 0.00 | 78 | 1016.7 |
| 20260505220347 | 61 | 187 | 0.9 | 6.1 | 0.00 | 0.00 | 0.00 | 78 | 1016.7 |
| 20260505214828 | 61 | 346 | 0.9 | 3.5 | 0.00 | 0.00 | 0.00 | 79 | 1016.8 |
| 20260505213334 | 60 | 16 | 3.5 | 6.1 | 0.00 | 0.00 | 0.00 | 81 | 1016.9 |
| 20260505211818 | 60 | 339 | 0.0 | 4.3 | 0.00 | 0.00 | 0.00 | 80 | 1017.0 |
| 20260505210322 | 60 | 317 | 2.6 | 5.2 | 0.00 | 0.00 | 0.00 | 80 | 1017.0 |
| 20260505204828 | 60 | 328 | 1.7 | 6.1 | 0.00 | 0.00 | 0.00 | 81 | 1016.9 |
| 20260505203335 | 59 | 333 | 2.6 | 4.3 | 0.00 | 0.00 | 0.00 | 82 | 1017.2 |
| 20260505201820 | 59 | 331 | 2.6 | 3.5 | 0.00 | 0.00 | 0.00 | 81 | 1017.3 |
| 20260505200328 | 59 | 327 | 3.5 | 6.1 | 0.00 | 0.00 | 0.00 | 81 | 1017.2 |
| 20260505194833 | 59 | 319 | 0.9 | 4.3 | 0.00 | 0.00 | 0.00 | 80 | 1017.3 |
| 20260505193337 | 60 | 352 | 2.6 | 6.1 | 0.00 | 0.00 | 0.00 | 80 | 1017.3 |
| 20260505191825 | 59 | 331 | 2.6 | 3.5 | 0.00 | 0.00 | 0.00 | 81 | 1017.4 |
| 20260505190334 | 59 | 164 | 0.9 | 2.6 | 0.00 | 0.00 | 0.00 | 80 | 1017.3 |
| 20260505184838 | 59 | 127 | 1.7 | 4.3 | 0.00 | 0.00 | 0.00 | 81 | 1017.2 |
| 20260505183340 | 58 | 209 | 1.7 | 2.6 | 0.00 | 0.00 | 0.00 | 81 | 1017.2 |
| 20260505181824 | 57 | 231 | 0.9 | 2.6 | 0.00 | 0.00 | 0.00 | 81 | 1017.2 |
| 20260505180345 | 57 | 199 | 0.0 | 2.6 | 0.00 | 0.00 | 0.00 | 82 | 1017.1 |
| 20260505174827 | 57 | 197 | 1.7 | 3.5 | 0.00 | 0.00 | 0.00 | 83 | 1017.1 |
| 20260505173333 | 56 | 202 | 1.7 | 3.5 | 0.00 | 0.00 | 0.00 | 84 | 1017.0 |
| 20260505171815 | 56 | 134 | 0.9 | 2.6 | 0.00 | 0.00 | 0.00 | 86 | 1016.9 |
| 20260505170323 | 56 | 173 | 0.0 | 2.6 | 0.00 | 0.00 | 0.00 | 85 | 1016.9 |
| 20260505164851 | 55 | 173 | 0.9 | 1.7 | 0.00 | 0.00 | 0.00 | 86 | 1016.8 |
| 20260505163313 | 55 | 189 | 0.9 | 1.7 | 0.00 | 0.00 | 0.00 | 87 | 1016.8 |
| 20260505161829 | 54 | 193 | 0.9 | 1.7 | 0.00 | 0.00 | 0.00 | 88 | 1016.6 |
| 20260505160352 | 54 | 191 | 0.0 | 1.7 | 0.00 | 0.00 | 0.00 | 88 | 1016.7 |
| 20260505153344 | 53 | 188 | 0.9 | 1.7 | 0.00 | 0.00 | 0.00 | 90 | 1016.6 |
| 20260505151830 | 52 | 188 | 0.9 | 2.6 | 0.00 | 0.00 | 0.00 | 90 | 1016.6 |
| 20260505150334 | 52 | 188 | 0.9 | 2.6 | 0.00 | 0.00 | 0.00 | 91 | 1016.5 |
| 20260505140345 | 51 | 188 | 0.0 | 0.0 | 0.00 | 0.00 | 0.00 | 94 | 1016.0 |
| 20260505124826 | 51 | 188 | 0.0 | 0.9 | 0.00 | 0.00 | 0.00 | 94 | 1015.5 |
| 20260505123332 | 51 | 188 | 0.0 | 0.9 | 0.00 | 0.00 | 0.00 | 94 | 1015.5 |
| 20260505121824 | 51 | 188 | 0.0 | 1.7 | 0.00 | 0.00 | 0.00 | 94 | 1015.4 |
| 20260505120334 | 51 | 188 | 0.9 | 2.6 | 0.00 | 0.00 | 0.00 | 94 | 1015.2 |
| 20260505114821 | 51 | 196 | 1.7 | 5.2 | 0.00 | 0.00 | 0.00 | 94 | 1015.2 |
| 20260505113331 | 51 | 197 | 1.7 | 5.2 | 0.00 | 0.00 | 0.00 | 94 | 1015.1 |
| 20260505111821 | 51 | 181 | 2.6 | 6.1 | 0.00 | 0.00 | 0.00 | 94 | 1015.0 |
| 20260505110329 | 51 | 221 | 2.6 | 4.3 | 0.00 | 0.00 | 0.00 | 94 | 1014.9 |
| 20260505101832 | 51 | 183 | 0.9 | 3.5 | 0.00 | 0.00 | 0.00 | 94 | 1014.8 |
| 20260505100328 | 50 | 166 | 0.9 | 5.2 | 0.00 | 0.00 | 0.00 | 94 | 1014.6 |
| 20260505094818 | 50 | 180 | 0.9 | 3.5 | 0.00 | 0.00 | 0.00 | 94 | 1014.7 |
| 20260505093324 | 50 | 200 | 1.7 | 7.0 | 0.00 | 0.00 | 0.00 | 95 | 1014.6 |
| 20260505091830 | 50 | 182 | 2.6 | 7.0 | 0.00 | 0.00 | 0.00 | 95 | 1014.5 |
| 20260505090322 | 49 | 177 | 2.6 | 6.1 | 0.00 | 0.00 | 0.00 | 95 | 1014.5 |
| 20260505084830 | 49 | 175 | 2.6 | 5.2 | 0.00 | 0.00 | 0.00 | 94 | 1014.4 |
| 20260505083338 | 49 | 179 | 1.7 | 3.5 | 0.00 | 0.00 | 0.00 | 94 | 1014.6 |
| 20260505081823 | 50 | 177 | 0.9 | 3.5 | 0.00 | 0.00 | 0.00 | 94 | 1014.5 |
| 20260505080331 | 50 | 169 | 0.9 | 7.0 | 0.00 | 0.00 | 0.00 | 94 | 1014.3 |
| 20260505074855 | 50 | 175 | 2.6 | 7.0 | 0.00 | 0.00 | 0.00 | 93 | 1014.3 |
| 20260505073359 | 50 | 182 | 1.7 | 7.0 | 0.00 | 0.00 | 0.00 | 93 | 1014.3 |
| 20260505071826 | 50 | 176 | 1.7 | 5.2 | 0.00 | 0.00 | 0.00 | 93 | 1014.2 |
| 20260505070316 | 50 | 180 | 1.7 | 6.1 | 0.00 | 0.00 | 0.00 | 93 | 1013.9 |
| 20260505064826 | 50 | 190 | 1.7 | 3.5 | 0.00 | 0.00 | 0.00 | 92 | 1014.0 |
| 20260505063329 | 51 | 196 | 1.7 | 5.2 | 0.00 | 0.00 | 0.00 | 91 | 1013.9 |